Weather History for LKPD - June, 2013

Change the Weather History Date:

Friday, June 28, 2013

  Actual Average Record
Temperature  
Mean Temperature 57 °F -  
Max Temperature 68 °F - - ()
Min Temperature 46 °F - - ()
Degree Days  
Heating Degree Days 8    
Growing Degree Days 7 (Base 50)    
Moisture  
Dew Point 46 °F    
Average Humidity 71    
Maximum Humidity 94    
Minimum Humidity 37    
Precipitation  
Precipitation 0.00 in - - ()
Sea Level Pressure  
Sea Level Pressure 30.12 in    
Wind  
Wind Speed 2 mph ()    
Max Wind Speed 12 mph    
Max Gust Speed -    
Visibility 6.2 miles    
Events      
T = Trace of Precipitation, MM = Missing Value Source: Averaged Metar Reports

Daily Weather History Graph

Daily Weather History Graph

Search for Another Location

Airport or City:

Trip Planner

Search our weather history database for the weather conditions in past years. The results will help you decide how hot, cold, wet, or windy it might be!

Date:

Astronomy

Jun. 28, 2013 Rise Set
Actual Time 4:50 AM CEST 9:10 PM CEST
Civil Twilight 4:05 AM CEST 9:54 PM CEST
Nautical Twilight 3:00 AM CEST 10:59 PM CEST
Astronomical Twilight 1:32 AM CEST 12:27 AM CEST
Moon 11:49 PM CEST (6/28) 11:15 AM CEST (6/28)
Length of Visible Light 17h 48m
Length of Day
16h 20m
Waning Gibbous, 69% of the Moon is Illuminated
Jun 28
Waning Gibbous
Jun 30
Last Quarter
Jul 8
New
Jul 16
First Quarter
Jul 22
Full

Hourly Weather History & Observations

Time (CEST) Temp. Dew Point Humidity Pressure Visibility Wind Dir Wind Speed Gust Speed Precip Events Conditions
12:00 AM 50.0 °F 46.4 °F 87% 30.18 in - SW 2.3 mph - N/A   Clear
1:00 AM 46.4 °F 44.6 °F 93% 30.18 in - Variable 1.2 mph - N/A   Clear
2:00 AM 46.4 °F 44.6 °F 93% 30.18 in - Calm Calm - N/A   Clear
3:00 AM 46.4 °F 44.6 °F 93% 30.18 in - Calm Calm - N/A   Clear
4:00 AM 46.4 °F 44.6 °F 93% 30.15 in - Calm Calm - N/A   Clear
5:00 AM 48.2 °F 46.4 °F 93% 30.15 in - Calm Calm - N/A   Clear
6:00 AM 48.2 °F 46.4 °F 93% 30.15 in - Calm Calm - N/A   Clear
7:00 AM 50.0 °F 48.2 °F 94% 30.15 in - Calm Calm - N/A   Clear
8:00 AM 51.8 °F 50.0 °F 94% 30.15 in - Variable 2.3 mph - N/A   Clear
9:00 AM 53.6 °F 50.0 °F 88% 30.15 in - WSW 4.6 mph - N/A   Clear
10:00 AM 59.0 °F 50.0 °F 72% 30.15 in 6.2 mi Variable 3.5 mph - N/A   Mostly Cloudy
11:00 AM 60.8 °F 48.2 °F 63% 30.12 in 6.2 mi SSW 3.5 mph - N/A   Scattered Clouds
12:00 PM 64.4 °F 44.6 °F 49% 30.12 in 6.2 mi Variable 2.3 mph - N/A   Scattered Clouds
1:00 PM 64.4 °F 37.4 °F 37% 30.12 in - Variable 3.5 mph - N/A   Clear
2:00 PM 66.2 °F 42.8 °F 43% 30.09 in - Variable 4.6 mph - N/A   Clear
3:00 PM 68.0 °F 42.8 °F 40% 30.09 in - Variable 3.5 mph - N/A   Clear
4:00 PM 66.2 °F 42.8 °F 43% 30.09 in - Variable 5.8 mph - N/A   Clear
5:00 PM 66.2 °F 41.0 °F 40% 30.09 in - West 4.6 mph - N/A   Clear
6:00 PM 66.2 °F 46.4 °F 49% 30.06 in - West 11.5 mph - N/A   Clear
7:00 PM 64.4 °F 46.4 °F 52% 30.06 in - West 8.1 mph - N/A   Clear
8:00 PM 62.6 °F 44.6 °F 52% 30.09 in - West 6.9 mph - N/A   Clear
9:00 PM 60.8 °F 50.0 °F 68% 30.09 in - West 3.5 mph - N/A   Clear
10:00 PM 55.4 °F 51.8 °F 88% 30.09 in - SSW 3.5 mph - N/A   Clear
11:00 PM 55.4 °F 50.0 °F 82% 30.09 in - SSW 2.3 mph - N/A   Clear